| time (UTC) | temp F | wind direction | speed knots | gust knots | rain 1hr in | rain 24hr in | rain mn in | humidity % | barometer mb |
| 20260502180231 | 64 | 0.0 | 0.0 | 0.00 | 0.00 | 0.00 | 99 | 1018.7 | |
| 20260502170124 | 64 | 0.0 | 0.0 | 0.00 | 0.00 | 0.00 | 99 | 1018.7 | |
| 20260502164102 | 64 | 0.0 | 0.0 | 0.00 | 0.00 | 0.00 | 99 | 1018.8 | |
| 20260502163056 | 64 | 0.0 | 0.0 | 0.00 | 0.00 | 0.00 | 99 | 1019.1 | |
| 20260502162039 | 64 | 0.0 | 0.0 | 0.00 | 0.00 | 0.00 | 99 | 1019.0 | |
| 20260502161028 | 65 | 0.0 | 0.0 | 0.00 | 0.00 | 0.00 | 99 | 1018.9 | |
| 20260502151831 | 67 | 0.0 | 0.0 | 0.00 | 0.00 | 0.00 | 99 | 1019.5 | |
| 20260502150820 | 68 | 0.0 | 0.0 | 0.00 | 0.00 | 0.00 | 99 | 1019.7 | |
| 20260502130603 | 69 | 0.0 | 0.0 | 0.00 | 0.00 | 0.00 | 99 | 1020.9 | |
| 20260502123413 | 69 | 0.0 | 0.0 | 0.00 | 0.00 | 0.00 | 99 | 1021.1 | |
| 20260502122406 | 69 | 0.0 | 0.0 | 0.00 | 0.00 | 0.00 | 99 | 1021.2 | |
| 20260502121350 | 68 | 0.0 | 0.0 | 0.00 | 0.00 | 0.00 | 99 | 1021.1 | |
| 20260502120238 | 68 | 0.0 | 0.0 | 0.00 | 0.00 | 0.00 | 99 | 1021.0 | |
| 20260502115209 | 68 | 0.0 | 0.0 | 0.00 | 0.00 | 0.00 | 99 | 1021.1 | |
| 20260502114057 | 67 | 0.0 | 0.0 | 0.00 | 0.00 | 0.00 | 99 | 1021.6 | |
| 20260502113045 | 67 | 0.0 | 0.0 | 0.00 | 0.00 | 0.00 | 99 | 1021.6 | |
| 20260502112040 | 66 | 0.0 | 0.0 | 0.00 | 0.00 | 0.00 | 99 | 1021.6 | |
| 20260502110920 | 67 | 0.0 | 0.0 | 0.00 | 0.00 | 0.00 | 99 | 1021.6 | |
| 20260502105910 | 66 | 0.0 | 0.0 | 0.00 | 0.00 | 0.00 | 99 | 1021.7 | |
| 20260502104757 | 68 | 0.0 | 0.0 | 0.00 | 0.00 | 0.00 | 99 | 1021.8 | |
| 20260502103747 | 68 | 0.0 | 0.0 | 0.00 | 0.00 | 0.00 | 99 | 1021.8 | |
| 20260502102718 | 67 | 0.0 | 0.0 | 0.00 | 0.00 | 0.00 | 99 | 1022.0 | |
| 20260502101712 | 68 | 0.0 | 0.0 | 0.00 | 0.00 | 0.00 | 99 | 1022.0 | |
| 20260502100655 | 68 | 0.0 | 0.0 | 0.00 | 0.00 | 0.00 | 99 | 1022.1 | |
| 20260502090445 | 67 | 0.0 | 0.0 | 0.00 | 0.00 | 0.00 | 99 | 1022.1 | |
| 20260502071212 | 74 | 0.0 | 0.0 | 0.00 | 0.00 | 0.00 | 99 | 1021.6 | |
| 20260502070156 | 72 | 0.0 | 0.0 | 0.00 | 0.00 | 0.00 | 99 | 1021.7 | |
| 20260502065145 | 68 | 0.0 | 0.0 | 0.00 | 0.00 | 0.00 | 99 | 1021.8 | |
| 20260502064032 | 67 | 0.0 | 0.0 | 0.00 | 0.00 | 0.00 | 99 | 1021.9 | |
| 20260502063021 | 69 | 0.0 | 0.0 | 0.00 | 0.00 | 0.00 | 99 | 1022.0 | |
| 20260502062010 | 67 | 0.0 | 0.0 | 0.00 | 0.00 | 0.00 | 99 | 1021.9 | |
| 20260502061005 | 68 | 0.0 | 0.0 | 0.00 | 0.00 | 0.00 | 99 | 1021.7 | |
| 20260502055949 | 65 | 0.0 | 0.0 | 0.00 | 0.00 | 0.00 | 99 | 1021.6 | |
| 20260502054936 | 64 | 0.0 | 0.0 | 0.00 | 0.00 | 0.00 | 99 | 1021.6 | |
| 20260502053926 | 64 | 0.0 | 0.0 | 0.00 | 0.00 | 0.00 | 99 | 1021.7 | |
| 20260502052914 | 64 | 0.0 | 0.0 | 0.00 | 0.00 | 0.00 | 99 | 1021.6 | |
| 20260502051903 | 63 | 0.0 | 0.0 | 0.00 | 0.00 | 0.00 | 99 | 1021.5 | |
| 20260502050856 | 63 | 0.0 | 0.0 | 0.00 | 0.00 | 0.00 | 99 | 1021.5 | |
| 20260502045840 | 63 | 0.0 | 0.0 | 0.00 | 0.00 | 0.00 | 99 | 1021.6 | |
| 20260502044828 | 64 | 0.0 | 0.0 | 0.00 | 0.00 | 0.00 | 99 | 1021.4 | |
| 20260502043818 | 64 | 0.0 | 0.0 | 0.00 | 0.00 | 0.00 | 99 | 1021.5 | |
| 20260502042705 | 64 | 0.0 | 0.0 | 0.00 | 0.00 | 0.00 | 99 | 1021.5 | |
| 20260502041654 | 64 | 0.0 | 0.0 | 0.00 | 0.00 | 0.00 | 99 | 1021.5 | |
| 20260502040649 | 64 | 0.0 | 0.0 | 0.00 | 0.00 | 0.00 | 99 | 1021.6 | |
| 20260502035631 | 64 | 0.0 | 0.0 | 0.00 | 0.00 | 0.00 | 99 | 1021.6 | |
| 20260502034620 | 64 | 0.0 | 0.0 | 0.00 | 0.00 | 0.00 | 99 | 1021.7 | |
| 20260502033402 | 64 | 0.0 | 0.0 | 0.00 | 0.00 | 0.00 | 99 | 1021.7 | |
| 20260502032250 | 64 | 0.0 | 0.0 | 0.00 | 0.00 | 0.00 | 99 | 1021.6 | |
| 20260502031031 | 64 | 0.0 | 0.0 | 0.00 | 0.00 | 0.00 | 99 | 1021.4 | |
| 20260502030035 | 64 | 0.0 | 0.0 | 0.00 | 0.00 | 0.00 | 99 | 1021.5 | |
| 20260502021904 | 64 | 0.0 | 0.0 | 0.00 | 0.00 | 0.00 | 99 | 1021.8 | |
| 20260502020852 | 64 | 0.0 | 0.0 | 0.00 | 0.00 | 0.00 | 99 | 1021.8 | |
| 20260502015840 | 64 | 0.0 | 0.0 | 0.00 | 0.00 | 0.00 | 99 | 1021.8 | |
| 20260502014829 | 64 | 0.0 | 0.0 | 0.00 | 0.00 | 0.00 | 99 | 1021.9 | |
| 20260502013823 | 65 | 0.0 | 0.0 | 0.00 | 0.00 | 0.00 | 99 | 1022.0 | |
| 20260502012807 | 65 | 0.0 | 0.0 | 0.00 | 0.00 | 0.00 | 99 | 1022.1 | |
| 20260502011655 | 65 | 0.0 | 0.0 | 0.00 | 0.00 | 0.00 | 99 | 1022.1 | |
| 20260502010644 | 65 | 0.0 | 0.0 | 0.00 | 0.00 | 0.00 | 99 | 1022.2 | |
| 20260502005633 | 64 | 0.0 | 0.0 | 0.00 | 0.00 | 0.00 | 99 | 1022.2 | |
| 20260502004622 | 64 | 0.0 | 0.0 | 0.00 | 0.00 | 0.00 | 99 | 1022.2 | |
| 20260502003616 | 64 | 0.0 | 0.0 | 0.00 | 0.00 | 0.00 | 99 | 1022.5 | |
| 20260502002600 | 64 | 0.0 | 0.0 | 0.00 | 0.00 | 0.00 | 99 | 1022.5 | |
| 20260502001548 | 64 | 0.0 | 0.0 | 0.00 | 0.00 | 0.00 | 99 | 1022.6 | |
| 20260502000537 | 64 | 0.0 | 0.0 | 0.00 | 0.00 | 0.00 | 99 | 1022.7 | |
| 20260501235527 | 64 | 0.0 | 0.0 | 0.00 | 0.00 | 0.00 | 99 | 1022.8 | |
| 20260501234516 | 63 | 0.0 | 0.0 | 0.00 | 0.00 | 0.00 | 99 | 1022.9 | |
| 20260501233509 | 64 | 0.0 | 0.0 | 0.00 | 0.00 | 0.00 | 99 | 1023.1 | |
| 20260501232452 | 64 | 0.0 | 0.0 | 0.00 | 0.00 | 0.00 | 99 | 1023.2 | |
| 20260501231442 | 63 | 0.0 | 0.0 | 0.00 | 0.00 | 0.00 | 99 | 1023.3 | |
| 20260501230430 | 63 | 0.0 | 0.0 | 0.00 | 0.00 | 0.00 | 99 | 1023.2 | |
| 20260501225418 | 64 | 0.0 | 0.0 | 0.00 | 0.00 | 0.00 | 99 | 1023.3 | |
| 20260501224406 | 64 | 0.0 | 0.0 | 0.00 | 0.00 | 0.00 | 99 | 1023.1 | |
| 20260501223401 | 64 | 0.0 | 0.0 | 0.00 | 0.00 | 0.00 | 99 | 1023.2 | |
| 20260501222238 | 63 | 0.0 | 0.0 | 0.00 | 0.00 | 0.00 | 99 | 1023.3 | |
| 20260501221227 | 64 | 0.0 | 0.0 | 0.00 | 0.00 | 0.00 | 99 | 1023.4 | |
| 20260501220215 | 64 | 0.0 | 0.0 | 0.00 | 0.00 | 0.00 | 99 | 1023.4 | |
| 20260501215204 | 63 | 0.0 | 0.0 | 0.00 | 0.00 | 0.00 | 99 | 1023.5 | |
| 20260501214153 | 63 | 0.0 | 0.0 | 0.00 | 0.00 | 0.00 | 99 | 1023.4 | |
| 20260501213147 | 64 | 0.0 | 0.0 | 0.00 | 0.00 | 0.00 | 99 | 1023.4 | |
| 20260501212131 | 63 | 0.0 | 0.0 | 0.00 | 0.00 | 0.00 | 99 | 1023.6 | |
| 20260501211119 | 63 | 0.0 | 0.0 | 0.00 | 0.00 | 0.00 | 99 | 1023.7 | |
| 20260501210108 | 63 | 0.0 | 0.0 | 0.00 | 0.00 | 0.00 | 99 | 1023.7 | |
| 20260501205057 | 63 | 0.0 | 0.0 | 0.00 | 0.00 | 0.00 | 99 | 1023.6 | |
| 20260501204046 | 63 | 0.0 | 0.0 | 0.00 | 0.00 | 0.00 | 99 | 1023.5 | |
| 20260501203041 | 63 | 0.0 | 0.0 | 0.00 | 0.00 | 0.00 | 99 | 1023.4 | |
| 20260501201923 | 63 | 0.0 | 0.0 | 0.00 | 0.00 | 0.00 | 99 | 1023.2 | |
| 20260501200915 | 63 | 0.0 | 0.0 | 0.00 | 0.00 | 0.00 | 99 | 1023.1 | |
| 20260501195900 | 63 | 0.0 | 0.0 | 0.00 | 0.00 | 0.00 | 99 | 1022.9 | |
| 20260501194849 | 64 | 0.0 | 0.0 | 0.00 | 0.00 | 0.00 | 99 | 1022.8 | |
| 20260501193837 | 64 | 0.0 | 0.0 | 0.00 | 0.00 | 0.00 | 99 | 1022.7 | |
| 20260501192730 | 65 | 0.0 | 0.0 | 0.00 | 0.00 | 0.00 | 99 | 1022.6 | |
| 20260501191714 | 65 | 0.0 | 0.0 | 0.00 | 0.00 | 0.00 | 99 | 1022.5 | |
| 20260501190456 | 65 | 0.0 | 0.0 | 0.00 | 0.00 | 0.00 | 99 | 1022.4 | |
| 20260501185326 | 65 | 0.0 | 0.0 | 0.00 | 0.00 | 0.00 | 99 | 1022.4 | |
| 20260501184315 | 65 | 0.0 | 0.0 | 0.00 | 0.00 | 0.00 | 99 | 1022.2 | |
| 20260501183304 | 65 | 0.0 | 0.0 | 0.00 | 0.00 | 0.00 | 99 | 1022.1 | |
| 20260501182259 | 66 | 0.0 | 0.0 | 0.00 | 0.00 | 0.00 | 99 | 1022.1 | |
| 20260501181238 | 66 | 0.0 | 0.0 | 0.00 | 0.00 | 0.00 | 99 | 1022.0 |